Regional Weather Roundup
Issued by NWS

Home | Current Version | Previous Version | Text Only | Print | Product List | Glossary Off
Versions: 1 2 3 4 5 6 7 8 9 10 11 12 13 14 15 16 17 18 19 20 21 22 23 24 25 26 27 28 29 30 31 32 33 34 35 36 37 38 39 40 41 42 43 44 45 46 47 48 49 50

000
ASUS45 KCYS 282110
RWRWY

WYOMING REGIONAL WEATHER ROUNDUP
NATIONAL WEATHER SERVICE CHEYENNE WY
200 PM MST SUN DEC 28 2014

NOTE:  "FAIR" INDICATES FEW OR NO CLOUDS BELOW 12,000 FEET
WITH NO SIGNIFICANT WEATHER AND/OR OBSTRUCTIONS TO VISIBILITY.

WYZ001-282200-
YELLOWSTONE NATIONAL PARK

CITY           SKY/WX    TMP DP  RH WIND       PRES   REMARKS
LK YELLOWSTONE   N/A     17   9  70 VRB5      29.82F WCI  10
W YELLOWSTONE  NOT AVBL

$$
WYZ002>013-054>058-071-098>099-282200-
NORTHERN WYOMING

CITY           SKY/WX    TMP DP  RH WIND       PRES   REMARKS
JACKSON        CLOUDY    21  18  86 S9        29.87F WCI  11
CODY           CLOUDY    18  12  79 NE6       29.85R WCI   9
GREYBULL       LGT SNOW  13  10  88 W5        29.93R VSB 1   WCI   5
WORLAND        CLOUDY    11   4  73 W6        29.91R WCI   1
SHERIDAN       CLOUDY    24  12  60 CALM      29.88R
BUFFALO        CLOUDY    27  18  69 CALM      29.84R
GILLETTE       CLOUDY    26  13  57 CALM      29.85S
HULETT           N/A    N/A N/A N/A MISG        N/A
NEWCASTLE      FAIR      27  14  59 CALM      29.87S

$$
WYZ014>020-022>026-101>103-282200-
CENTRAL WYOMING

CITY           SKY/WX    TMP DP  RH WIND       PRES   REMARKS
BIG PINEY      CLOUDY    16   8  71 N3        29.87S
PINEDALE       LGT SNOW  14  10  85 NW3       29.87S
DUBOIS         NOT AVBL
LANDER         CLOUDY    17   7  64 SW3       29.81S
RIVERTON       CLOUDY    17   8  67 SW6       29.83S WCI   9
CASPER         PTSUNNY   25  13  60 SW15      29.83F WCI  13
DOUGLAS        FAIR      30  15  53 W15       29.82S WCI  19

$$
WYZ021-027>030-104>119-282200-
SOUTHERN WYOMING

CITY           SKY/WX    TMP DP  RH WIND       PRES   REMARKS
EVANSTON       CLOUDY    22  12  65 W20       29.91S WCI   7
FORT BRIDGER   CLOUDY    24  17  74 W24G31    29.91S WCI   9
ROCK SPRINGS   CLOUDY    22  16  78 W24G36    29.86R WCI   5
DIXON          LGT SNOW  22  16  75 SW17G24   29.93F VSB 3/4 WCI   8
RAWLINS        LGT SNOW  20  14  77 W21G31    29.82R VSB 1   WCI   4
SARATOGA       CLOUDY    23  12  63 CALM      29.84F
LARAMIE        FAIR      20  11  68 W8        29.79F WCI  10
CHEYENNE       FAIR      30  12  47 NW8       29.80F WCI  22
TORRINGTON     PTSUNNY   32  17  54 W14       29.84F WCI  22
PINE BLUFFS    FAIR      30  12  47 CALM      29.86R

$$


USA.gov is the U.S. government's official web portal to all federal, state and local government web resources and services.